Location: Newark
(42.7133°N, 87.7910°W)
Time: 09:06:26
(UTC+00:00)

Transit 2A - Visible Passes

Search period start: 24 September 2019 00:00
Search period end: 04 October 2019 00:00
Orbit: 599 x 960 km, 66.7° (Epoch: 23 September)

Date Brightness Start Highest point End Pass type
(mag) Time Alt. Az. Time Alt. Az. Time Alt. Az.
24 Sep 8.0 08:14:12 23° N 08:14:12 23° N 08:16:16 10° NNE visible
24 Sep 8.3 09:54:54 10° NW 09:55:35 10° NW 09:56:16 10° NNW visible
25 Sep 8.5 07:41:07 17° NNE 07:41:07 17° NNE 07:42:15 10° NNE visible
25 Sep 8.2 09:21:37 13° NNW 09:21:37 13° NNW 09:23:39 10° N visible
26 Sep 9.0 07:08:01 11° NNE 07:08:01 11° NNE 07:08:11 10° NNE visible
26 Sep 8.2 08:48:31 15° NNW 08:48:31 15° NNW 08:50:10 10° N visible
27 Sep 8.4 08:15:23 15° N 08:15:23 15° N 08:16:28 10° N visible
28 Sep 8.8 07:42:16 12° N 07:42:16 12° N 07:42:39 10° NNE visible
